Vertical_Velocity
-2 -2 -3 -3 -3 -4 -4 -5 -4 -4 -3 -2 -2 -2 -3 -3 -2 -2 -2 -2 -3 -3 -3 -3 -2 -2 -2 -1 -0 -0 -1 -2 -1 -1 -0 0 0 0 0 1 5 7 7 4 2 0 -1 0 -1 -2 -3 -2 -1 -1 -1 -2 -2 -2 -2 -1 -1 -1 -1 0 -1 -1 -0 1 1
-1 -2 -2 -3 -4 -4 -5 -5 -4 -3 -2 -1 -1 -2 -3 -3 -2 -2 -2 -2 -2 -2 -3 -3 -3 -2 -1 -0 0 -0 -1 -3 -2 -1 -1 -1 -0 -0 -0 -0 2 4 6 5 3 2 -0 -1 -1 -2 -1 -1 0 0 -0 -0 0 0 -0 -0 -0 -0 0 1 0 0 1 1 2
-2 -1 -2 -2 -3 -3 -3 -3 -2 -1 -1 -0 -1 -2 -2 -2 -1 -2 -2 -2 -2 -2 -3 -3 -3 -2 -1 -0 -0 -1 -1 -1 -1 -1 -1 -1 -1 -1 -1 -1 1 2 3 4 4 4 2 0 -1 -1 -0 -0 1 1 1 1 2 2 2 1 1 1 1 1 1 1 2 3 3
-2 -2 -2 -2 -3 -3 -3 -2 -2 -1 -1 -1 -2 -2 -2 -1 -1 -2 -3 -3 -3 -2 -2 -2 -2 -2 -2 -0 -1 -1 0 1 0 -0 -1 -1 -1 -1 -0 0 0 2 3 2 3 4 4 3 1 0 0 -0 1 1 2 2 2 2 2 2 2 2 2 2 2 3 4 4 5
-2 -2 -2 -3 -3 -4 -3 -2 -2 -1 -1 -2 -3 -3 -2 -1 -1 -2 -2 -2 -2 -2 -1 -1 -1 -1 -1 1 -1 -0 1 2 1 0 -0 -1 -1 -1 -0 -0 -0 2 3 1 2 3 4 4 2 2 1 1 1 2 2 2 1 2 2 2 2 2 2 2 3 4 5 5 6
-1 -1 -1 -2 -3 -3 -3 -2 -2 -2 -2 -3 -3 -2 -1 -0 -1 -1 -1 -0 -2 -2 -2 -2 -1 -0 -0 -1 -2 -1 0 2 1 1 1 -0 -1 -1 -1 -1 -1 1 3 2 2 2 2 3 3 3 3 2 2 1 2 1 1 1 1 1 1 1 1 2 2 3 4 5 5
-1 -1 -1 -2 -2 -3 -2 -2 -2 -2 -2 -3 -2 -1 -0 -0 -1 -1 -0 -0 -2 -3 -2 -3 -1 -0 -1 -3 -4 -2 -0 1 1 1 1 1 0 -0 -1 -1 -2 -1 1 2 2 1 1 2 2 2 2 2 2 2 2 1 1 0 -0 -0 -0 -0 0 1 1 1 1 2 4
-2 -2 -2 -2 -3 -3 -2 -1 -1 -1 -2 -3 -2 -1 -1 -1 -1 -1 -1 -1 -1 -1 -2 -2 -1 -0 -1 -3 -3 -2 -2 -1 -1 -1 -0 0 0 0 -0 -1 -2 -3 -2 1 2 1 0 1 2 2 2 1 2 2 3 2 2 1 0 -0 -0 -0 -0 0 -0 -0 -0 0 1
-2 -2 -2 -2 -3 -3 -2 -1 -1 -1 -2 -2 -2 -1 -1 -1 -1 -1 -0 -0 -1 -1 -1 -2 -1 -1 -2 -2 -2 -3 -3 -3 -2 -2 -2 -1 -1 -1 -2 -2 -3 -4 -4 -1 1 1 0 0 1 2 2 2 2 3 3 3 3 2 2 1 1 1 1 2 2 1 1 0 1
-2 -2 -1 -2 -2 -2 -2 -1 -1 -1 -1 -2 -2 -2 -1 -1 -1 -1 -0 -0 -1 -1 -1 -0 -1 -2 -2 -1 -2 -3 -3 -2 -2 -3 -3 -2 -2 -2 -2 -2 -3 -4 -5 -3 0 1 1 0 1 1 2 2 2 2 2 3 3 3 3 2 2 2 3 3 3 3 1 -0 1
-2 -2 -2 -2 -2 -2 -1 -1 -1 -1 -1 -1 -2 -2 -2 -2 -1 -1 -0 -0 -1 -0 0 0 -1 -2 -2 -2 -2 -2 -2 -2 -2 -2 -3 -3 -3 -2 -2 -1 -2 -3 -4 -3 -0 1 1 1 1 1 2 1 1 0 0 1 2 2 3 3 3 3 3 3 3 2 1 -0 0
-2 -2 -2 -2 -2 -2 -1 -1 -0 -0 -1 -1 -2 -2 -2 -2 -2 -1 -1 -1 -0 -0 -0 -1 -1 -1 -2 -2 -1 -1 -2 -1 -1 -1 -2 -3 -3 -3 -3 -2 -3 -3 -3 -3 -1 0 1 1 1 1 1 2 1 -0 -1 -1 -0 0 1 2 2 2 2 1 1 1 1 1 -0
-2 -2 -1 -1 -1 -1 -1 -1 -0 -0 -0 -1 -1 -2 -2 -2 -2 -2 -2 -1 -0 -1 -1 -1 -1 -1 -1 -1 -1 -1 -1 -1 -0 -0 -1 -2 -2 -3 -4 -4 -4 -4 -3 -3 -2 -0 1 1 1 1 1 2 2 1 0 -1 -1 -1 -1 -1 -0 0 1 0 0 1 1 1 1
-2 -2 -1 -1 -1 -1 -1 -1 -0 -0 -0 -1 -1 -1 -1 -2 -2 -2 -2 -1 -1 -1 -1 -2 -1 -1 -0 -1 -1 -1 -0 -0 0 1 0 -0 -1 -2 -3 -5 -5 -4 -3 -3 -2 -1 -0 0 0 0 1 2 2 2 1 0 -0 -1 -2 -2 -2 -1 -1 -1 -0 -0 0 0 0
-2 -2 -1 -1 -1 -1 -1 -1 -0 -0 -0 -0 -1 -1 -1 -2 -2 -2 -2 -2 -2 -1 -1 -1 -1 -1 -1 -0 -1 -1 -0 0 1 1 1 0 -0 -1 -2 -4 -5 -4 -3 -2 -2 -1 -0 0 -0 -0 1 2 2 2 1 1 0 -0 -1 -2 -2 -2 -2 -2 -1 -1 -1 -1 -1
-2 -1 -1 -1 -1 -1 -1 -1 -0 -0 -0 -0 -0 -1 -1 -1 -1 -1 -1 -2 -2 -2 -1 0 -0 -1 -1 -1 -1 -1 -1 -0 1 1 1 0 -0 -1 -2 -3 -4 -4 -3 -2 -2 -2 -1 1 0 0 1 2 2 2 2 1 1 0 -0 -1 -1 -2 -2 -2 -2 -1 -1 -1 -1
-2 -1 -1 -1 -1 -1 -1 -1 -0 -0 -0 -0 -0 -0 -0 -1 -1 -1 -1 -1 -2 -2 -1 -0 -0 -0 -1 -1 -1 -1 -1 -1 -0 1 1 1 1 -0 -1 -2 -2 -2 -2 -2 -2 -3 -2 -0 0 1 2 3 3 2 2 1 1 1 1 0 -0 -1 -1 -2 -2 -2 -2 -2 -1
-2 -1 -1 -1 -1 -1 -1 -1 -1 -0 -0 -0 -0 -0 -0 -0 -1 -1 -1 -1 -1 -1 -2 -1 -0 0 0 0 0 -0 -1 -2 -1 -0 1 2 2 1 1 -0 -0 -0 -1 -1 -2 -3 -3 -1 -1 0 2 3 3 3 2 1 1 1 1 0 -0 -0 -1 -2 -2 -2 -2 -2 -1
-2 -1 -1 -1 -1 -1 -1 -1 -1 -1 -1 -1 -1 -1 -0 -0 -0 -1 -1 -1 -0 -1 -1 -2 -1 -1 0 1 1 1 1 -0 -1 -1 0 2 2 2 2 1 1 1 0 -0 -2 -3 -3 -2 -1 1 2 3 2 2 2 1 1 1 -0 -1 -1 -1 -2 -2 -3 -3 -2 -2 -1
-2 -1 -1 -1 -1 -1 -1 -1 -1 -1 -1 -0 -0 -1 -0 -0 -0 -0 -0 -1 -0 -0 -0 -1 -1 -1 -1 -0 0 1 1 1 -0 -1 -1 0 1 2 2 2 2 1 1 2 1 -1 -2 -3 -1 1 3 4 3 2 1 1 0 -0 -1 -2 -2 -2 -2 -3 -3 -3 -3 -2 -2
-2 -1 -1 -1 -1 -1 -1 -1 -1 -1 -1 -1 -1 -1 -1 -0 0 0 -0 -1 -1 -0 -0 -0 -1 -1 -1 -1 -1 -0 1 1 1 0 -1 -1 0 1 2 3 2 2 1 3 3 1 -0 -1 -0 1 3 5 3 2 0 -0 -0 -1 -1 -1 -1 -1 -2 -2 -3 -3 -3 -3 -2
-2 -1 -1 -1 -1 -1 -1 -1 -1 -1 -1 -1 -1 -1 -1 -0 -0 -0 -0 -1 -1 -0 -0 -0 -0 -0 -1 -1 -2 -2 -1 0 1 2 1 -0 -0 1 2 3 3 2 1 2 3 3 3 3 0 1 2 5 3 2 0 -0 -0 -0 0 0 0 -1 -2 -2 -2 -2 -3 -3 -3
-1 -1 -1 -1 -1 -1 -1 -1 -1 -1 -1 -0 -0 -0 -0 -1 -0 -0 -0 -0 -0 -1 -0 -0 -0 -0 -1 -1 -1 -2 -2 -2 -0 1 2 2 1 1 1 2 3 2 2 1 3 8 12 10 1 -1 0 3 2 1 0 -0 -1 -0 -0 -0 -1 -1 -2 -2 -3 -3 -3 -2 -2
-1 -1 -1 -1 -1 -1 -1 -1 -1 -1 -0 -0 -0 -0 -1 -1 -1 -1 -1 -1 -1 -1 -1 -1 -1 -1 -1 -1 -1 -1 -1 -2 -2 -1 0 2 2 1 1 0 2 3 3 2 2 13 24 26 6 -1 -1 0 -0 -0 0 -0 -0 -1 -1 -1 -2 -2 -2 -2 -3 -3 -3 -2 -1
-1 -1 -1 -1 -1 -1 -1 -1 -1 -1 -0 -0 -0 -1 -1 -1 -1 -1 -1 -1 -1 -1 -1 -1 -1 -1 -1 -2 -1 -1 -0 -1 -2 -2 -2 -2 -0 0 -0 -1 -0 1 1 1 -1 7 24 46 23 7 -1 -2 -2 -2 -1 -1 -1 -1 -1 -1 -2 -3 -4 -5 -5 -4 -3 -2 -1
-1 -1 -1 -1 -1 -1 -1 -1 -1 -0 -0 -0 -0 -0 -1 -1 -1 -1 -1 -2 -1 -1 -1 -1 -1 -2 -2 -1 -1 -1 -1 -1 -1 -2 -2 -3 -3 -2 -1 -1 -1 -1 -1 -1 -3 -1 12 42 39 21 2 -3 -4 -4 -4 -3 -2 -1 -1 -1 -2 -3 -4 -6 -6 -6 -4 -3 -2
-1 -1 -1 -1 -1 -1 -1 -1 -1 -1 -1 -0 -0 -0 -0 -0 -1 -1 -1 -1 -2 -2 -1 -2 -2 -2 -2 -2 -2 -2 -2 -2 -2 -2 -1 -1 -2 -2 -1 -1 -1 -2 -2 -2 -2 -3 3 20 35 26 7 -3 -4 -5 -5 -4 -3 -3 -3 -2 -3 -3 -3 -4 -5 -5 -5 -4 -3
-1 -1 -1 -1 -1 -1 -1 -1 -1 -1 -1 -0 -0 -0 -0 -1 -1 -1 -1 -1 -2 -2 -2 -2 -2 -2 -2 -2 -2 -2 -2 -2 -2 -2 -2 -1 -0 0 1 0 -0 -0 -0 0 -1 -2 -0 7 25 22 10 -2 -5 -6 -6 -5 -4 -3 -2 -2 -2 -2 -2 -2 -3 -3 -4 -4 -3
-1 -1 -1 -1 -1 -1 -1 -1 -1 -1 -1 -0 -0 -0 -1 -1 -1 -1 -1 -1 -1 -1 -1 -1 -2 -2 -2 -2 -2 -2 -2 -2 -2 -3 -3 -3 -2 -0 1 2 1 1 1 1 -0 -0 1 5 17 16 8 -0 -4 -6 -6 -6 -5 -3 -1 0 -0 -1 -2 -2 -2 -2 -2 -2 -2
-1 -1 -1 -1 -1 -1 -1 -1 -1 -1 -1 -1 -1 -1 -1 -1 -1 -1 -1 -1 -1 -0 -0 -1 -1 -1 -1 -1 -1 -2 -2 -2 -2 -2 -3 -4 -3 -2 -0 1 1 1 0 1 -0 0 2 5 11 11 7 0 -3 -6 -7 -7 -6 -3 -0 2 1 -0 -1 -1 -1 -1 -1 -1 -1
-1 -1 -1 -1 -1 -1 -1 -1 -1 -1 -1 -1 -1 -1 -1 -1 -1 -1 -1 -1 -1 -0 -0 -0 -0 -0 -1 -1 -1 -1 -1 -2 -2 -2 -2 -3 -3 -3 -2 -1 -0 -0 -0 -0 -0 -0 1 3 12 15 11 2 -2 -5 -7 -8 -7 -4 -0 2 1 -0 -1 -1 -0 -0 0 1 -1
-1 -1 -1 -1 -1 -1 -1 -1 -1 -1 -1 -0 -1 -1 -1 -1 -1 -1 -1 -1 -1 -1 -1 -0 -0 -1 -1 -2 -1 -1 -1 -1 -1 -1 -2 -2 -3 -3 -3 -2 -1 -1 -1 -1 -0 -1 -1 0 16 22 18 4 0 -2 -4 -8 -7 -3 0 2 0 -0 -0 1 1 1 1 1 -1
-1 -1 -1 -1 -1 -1 -2 -2 -2 -2 -1 -1 -0 -0 -1 -1 -1 -1 -1 -1 -1 -1 -0 -0 -0 -1 -1 -2 -2 -2 -2 -1 -1 -2 -2 -2 -2 -2 -3 -3 -2 -2 -2 -1 -1 -1 -2 -2 15 23 21 5 2 1 -2 -8 -6 -1 3 2 -0 -1 -1 1 3 2 1 -0 -2
-1 -1 -1 -1 -1 -2 -2 -2 -2 -2 -2 -1 -1 -0 -1 -1 -2 -2 -1 -1 -0 -0 -0 -0 -0 -1 -1 -1 -2 -2 -3 -2 -2 -2 -2 -2 -2 -2 -2 -3 -3 -2 -2 -1 -1 -1 -2 -3 13 21 19 4 2 -0 -4 -9 -3 1 3 1 -1 -3 -3 -1 1 2 1 -1 -3
-1 -1 -1 -1 -1 -2 -2 -2 -2 -2 -2 -2 -1 -1 -1 -1 -1 -1 -1 -1 -1 -1 -1 -0 -0 -1 -1 -1 -2 -2 -3 -3 -3 -2 -2 -2 -3 -3 -3 -3 -3 -2 -1 -1 -2 -2 -3 -3 13 24 24 5 1 -4 -8 -9 -3 -0 -1 -2 -4 -5 -5 -5 -2 -0 -0 -2 -4
-2 -1 -1 -1 -1 -2 -2 -2 -2 -2 -2 -2 -1 -1 -0 0 -0 -1 -2 -2 -2 -2 -1 -0 -1 -1 -1 -1 -1 -1 -2 -2 -2 -2 -2 -2 -2 -3 -4 -4 -4 -3 -3 -2 -3 -4 -4 -3 13 29 30 3 -3 -7 -8 -6 -4 -4 -5 -5 -5 -5 -6 -6 -4 -3 -2 -3 -4
-2 -2 -2 -1 -1 -1 -2 -2 -2 -3 -2 -2 -1 -0 -0 -0 -1 -1 -2 -3 -2 -2 -1 -0 -1 -1 -1 -1 -1 -1 -1 -1 -2 -2 -2 -2 -2 -3 -4 -5 -5 -5 -5 -5 -5 -5 -5 -4 9 28 33 2 -5 -6 -5 -3 -4 -6 -7 -8 -7 -6 -6 -6 -4 -3 -3 -3 -2
-2 -2 -2 -1 -1 -1 -1 -2 -2 -2 -2 -2 -1 -0 -0 -1 -1 -2 -1 -1 -2 -1 -1 -0 -0 -0 -1 -1 -1 -0 -0 -0 -1 -1 -2 -2 -2 -3 -5 -6 -7 -7 -7 -7 -7 -7 -7 -6 3 24 33 4 -3 -5 -4 -4 -4 -5 -6 -8 -8 -8 -6 -5 -4 -4 -3 -2 -0
-2 -2 -2 -2 -1 -1 -1 -1 -2 -2 -2 -2 -1 -1 -1 -0 -1 -1 -0 -0 -1 -1 -1 -0 -0 0 -0 -0 -0 -0 0 0 0 -0 -1 -2 -2 -3 -4 -6 -7 -8 -8 -7 -7 -7 -7 -6 -2 17 30 14 2 -5 -7 -6 -4 -3 -4 -5 -7 -8 -7 -5 -4 -3 -3 -3 -0
-2 -2 -2 -2 -2 -2 -2 -1 -1 -2 -2 -2 -2 -2 -1 0 -0 -0 -1 -1 -1 -1 -1 -0 0 1 1 0 0 -0 -0 -0 -0 -0 -0 -1 -2 -3 -4 -6 -7 -8 -7 -6 -5 -4 -5 -5 -3 9 23 29 13 1 -6 -7 -6 -3 -1 -1 -3 -5 -7 -7 -4 -3 -3 -3 -2
-2 -2 -2 -2 -2 -2 -2 -2 -2 -2 -2 -2 -2 -2 -1 -1 -1 -1 -1 -1 -0 -1 -1 -1 0 1 1 1 1 0 -0 -1 -0 0 1 -0 -2 -4 -5 -7 -8 -7 -6 -4 -3 -2 -3 -4 -4 1 12 32 24 13 2 -4 -5 -4 -1 1 1 -0 -3 -6 -5 -4 -3 -3 -3
Height
1553 1552 1550 1549 1548 1546 1545 1543 1542 1540 1539 1538 1537 1535 1533 1532 1531 1529 1528 1526 1525 1523 1521 1519 1518 1516 1513 1512 1510 1508 1506 1503 1501 1499 1497 1494 1492 1489 1487 1484 1483 1481 1478 1475 1471 1468 1466 1464 1462 1460 1458 1457 1455 1454 1453 1451 1450 1449 1448 1447 1445 1444 1442 1441 1439 1438 1437 1436 1435
1553 1551 1550 1548 1547 1546 1544 1543 1542 1540 1539 1538 1537 1535 1533 1532 1530 1529 1528 1526 1524 1523 1521 1519 1518 1515 1514 1512 1510 1508 1506 1503 1501 1499 1496 1493 1491 1489 1486 1484 1483 1481 1478 1475 1473 1470 1467 1465 1462 1460 1459 1457 1456 1454 1453 1451 1450 1449 1447 1446 1444 1443 1442 1440 1439 1438 1437 1436 1435
1552 1551 1549 1548 1547 1545 1544 1543 1541 1540 1539 1538 1536 1535 1533 1532 1530 1529 1527 1526 1524 1523 1521 1519 1517 1515 1514 1512 1510 1508 1505 1503 1501 1499 1496 1493 1491 1488 1486 1484 1483 1481 1479 1476 1473 1471 1468 1466 1463 1462 1460 1458 1456 1455 1453 1452 1450 1449 1447 1446 1444 1443 1441 1440 1438 1437 1436 1435 1434
1552 1550 1549 1548 1546 1545 1543 1542 1541 1540 1539 1537 1536 1534 1533 1531 1530 1528 1527 1525 1524 1522 1521 1519 1517 1515 1513 1512 1509 1508 1505 1503 1502 1499 1496 1493 1491 1488 1486 1484 1482 1481 1479 1476 1474 1472 1470 1467 1465 1463 1461 1459 1457 1455 1453 1452 1450 1449 1447 1446 1444 1443 1441 1440 1438 1437 1436 1435 1433
1551 1549 1548 1547 1546 1544 1543 1542 1541 1539 1538 1537 1535 1534 1533 1531 1530 1528 1527 1525 1523 1522 1520 1519 1517 1515 1513 1512 1509 1507 1505 1503 1501 1499 1496 1493 1491 1488 1486 1484 1482 1481 1479 1477 1474 1472 1470 1468 1466 1464 1462 1460 1458 1456 1454 1453 1451 1449 1448 1446 1445 1443 1442 1440 1439 1438 1436 1435 1433
1550 1548 1547 1546 1545 1544 1543 1542 1540 1539 1538 1536 1535 1533 1532 1531 1529 1528 1526 1525 1523 1522 1520 1518 1517 1515 1513 1511 1509 1507 1505 1503 1501 1499 1496 1494 1491 1488 1486 1484 1482 1480 1479 1477 1474 1472 1471 1469 1467 1465 1463 1461 1459 1458 1456 1454 1452 1450 1449 1447 1445 1444 1442 1441 1439 1438 1436 1435 1433
1550 1548 1547 1546 1544 1543 1542 1541 1540 1538 1537 1536 1534 1533 1532 1531 1529 1528 1526 1525 1523 1521 1520 1518 1516 1515 1513 1511 1509 1507 1505 1503 1501 1499 1497 1494 1492 1489 1486 1484 1482 1480 1479 1477 1474 1473 1471 1469 1467 1465 1463 1462 1460 1458 1457 1455 1453 1451 1449 1448 1446 1444 1443 1441 1440 1438 1437 1435 1433
1549 1548 1547 1545 1544 1543 1542 1540 1539 1538 1537 1535 1534 1533 1532 1530 1528 1527 1526 1524 1523 1521 1519 1518 1516 1514 1513 1511 1509 1507 1505 1503 1501 1498 1496 1494 1492 1489 1487 1484 1482 1480 1479 1477 1475 1473 1471 1469 1468 1466 1464 1462 1460 1459 1457 1455 1453 1452 1450 1448 1447 1445 1443 1442 1440 1439 1437 1436 1434
1548 1547 1546 1544 1543 1542 1541 1540 1539 1538 1536 1535 1534 1532 1531 1529 1528 1527 1525 1523 1522 1520 1519 1517 1516 1514 1512 1510 1508 1507 1505 1503 1501 1498 1497 1494 1492 1489 1487 1485 1482 1480 1478 1477 1475 1473 1471 1469 1468 1466 1464 1463 1461 1459 1457 1455 1454 1452 1450 1449 1447 1446 1444 1442 1441 1439 1438 1436 1434
1548 1546 1545 1544 1543 1542 1540 1539 1538 1537 1536 1534 1533 1532 1530 1529 1528 1526 1525 1523 1522 1520 1518 1517 1515 1513 1512 1510 1508 1506 1504 1503 1501 1499 1497 1495 1492 1490 1488 1485 1483 1480 1478 1477 1475 1473 1471 1469 1468 1466 1465 1463 1461 1459 1458 1456 1454 1452 1450 1449 1447 1446 1444 1443 1441 1439 1438 1436 1435
1547 1545 1544 1543 1542 1541 1540 1539 1538 1536 1535 1534 1533 1531 1530 1528 1527 1526 1524 1523 1521 1519 1518 1516 1514 1513 1511 1509 1508 1506 1504 1503 1501 1499 1497 1495 1493 1491 1488 1486 1483 1481 1479 1477 1475 1473 1471 1469 1468 1466 1465 1463 1461 1459 1458 1456 1454 1452 1450 1449 1447 1445 1444 1442 1441 1439 1437 1436 1435
1546 1545 1543 1542 1541 1540 1539 1538 1537 1536 1534 1533 1532 1530 1529 1528 1526 1525 1523 1522 1520 1519 1517 1516 1514 1512 1511 1509 1507 1505 1504 1502 1500 1498 1497 1495 1493 1491 1489 1487 1484 1482 1479 1477 1475 1473 1471 1469 1468 1466 1464 1463 1461 1459 1458 1456 1454 1452 1450 1448 1447 1445 1443 1442 1440 1438 1437 1436 1434
1545 1544 1543 1542 1540 1539 1538 1537 1536 1535 1534 1533 1531 1530 1528 1527 1525 1524 1523 1521 1520 1518 1516 1515 1513 1512 1510 1508 1507 1505 1503 1502 1500 1498 1497 1495 1493 1491 1489 1487 1484 1482 1480 1478 1475 1473 1472 1470 1468 1466 1464 1463 1461 1460 1458 1456 1454 1452 1450 1448 1447 1445 1443 1442 1440 1438 1437 1436 1434
1545 1543 1542 1541 1540 1539 1538 1536 1535 1534 1533 1532 1530 1529 1528 1526 1525 1523 1522 1520 1519 1517 1516 1514 1513 1511 1509 1508 1506 1504 1503 1501 1499 1498 1496 1494 1493 1491 1489 1487 1485 1483 1480 1478 1476 1474 1472 1470 1468 1466 1464 1463 1461 1460 1458 1456 1454 1453 1451 1449 1447 1445 1443 1442 1440 1438 1437 1435 1434
1544 1543 1542 1540 1539 1538 1537 1536 1534 1533 1532 1531 1530 1528 1527 1525 1524 1523 1521 1519 1518 1516 1515 1513 1512 1510 1509 1507 1506 1504 1502 1500 1499 1497 1495 1494 1492 1490 1488 1487 1484 1483 1480 1478 1476 1474 1473 1470 1468 1466 1465 1463 1462 1460 1458 1456 1454 1453 1451 1449 1447 1445 1443 1442 1440 1438 1437 1435 1433
1544 1543 1541 1540 1538 1537 1536 1535 1533 1533 1531 1530 1529 1528 1526 1525 1523 1522 1520 1519 1517 1516 1514 1513 1511 1509 1508 1507 1505 1503 1502 1500 1498 1496 1495 1493 1491 1490 1488 1486 1484 1482 1480 1478 1477 1475 1473 1471 1468 1467 1465 1463 1462 1460 1458 1456 1454 1453 1451 1449 1447 1445 1443 1442 1440 1438 1437 1435 1433
1543 1542 1541 1539 1538 1537 1535 1534 1533 1532 1530 1529 1528 1527 1525 1524 1523 1521 1519 1518 1516 1515 1513 1512 1510 1509 1507 1506 1504 1503 1501 1499 1498 1496 1494 1492 1491 1489 1487 1485 1484 1482 1480 1478 1477 1475 1473 1471 1469 1467 1465 1463 1462 1460 1458 1457 1455 1453 1451 1449 1447 1445 1444 1442 1440 1438 1436 1435 1433
1543 1542 1540 1539 1538 1536 1535 1533 1532 1531 1529 1528 1527 1526 1524 1523 1522 1520 1519 1518 1516 1514 1513 1511 1510 1508 1507 1505 1503 1502 1500 1498 1497 1495 1493 1492 1490 1488 1487 1485 1483 1482 1480 1478 1476 1474 1473 1471 1469 1467 1465 1464 1462 1460 1458 1457 1455 1453 1451 1449 1447 1445 1443 1442 1440 1438 1436 1434 1433
1542 1541 1540 1538 1537 1535 1534 1533 1531 1530 1528 1527 1526 1524 1523 1522 1521 1519 1518 1517 1515 1514 1512 1511 1509 1508 1506 1504 1503 1501 1499 1498 1496 1494 1492 1491 1489 1488 1486 1485 1483 1481 1479 1478 1476 1474 1473 1470 1468 1467 1465 1463 1462 1460 1458 1457 1455 1453 1451 1449 1447 1445 1443 1441 1440 1438 1436 1434 1433
1542 1540 1539 1538 1536 1535 1533 1532 1530 1529 1527 1526 1525 1523 1522 1521 1520 1518 1517 1516 1514 1513 1512 1510 1508 1507 1505 1503 1502 1500 1498 1497 1495 1493 1491 1489 1488 1487 1485 1484 1483 1481 1479 1477 1476 1474 1472 1470 1468 1467 1465 1463 1462 1460 1458 1456 1454 1452 1450 1448 1447 1445 1443 1441 1439 1438 1436 1434 1433
1541 1540 1538 1537 1536 1534 1533 1531 1529 1528 1527 1525 1524 1523 1521 1520 1519 1518 1517 1515 1514 1512 1511 1509 1508 1506 1504 1503 1501 1499 1498 1496 1494 1492 1490 1489 1487 1485 1484 1483 1482 1480 1478 1477 1475 1473 1472 1470 1468 1466 1465 1463 1461 1459 1458 1456 1454 1452 1450 1448 1447 1445 1443 1441 1439 1437 1435 1434 1432
1540 1539 1538 1536 1535 1533 1532 1531 1529 1528 1526 1525 1523 1522 1520 1519 1518 1517 1516 1514 1513 1512 1510 1508 1507 1505 1503 1502 1500 1498 1497 1495 1493 1491 1490 1488 1486 1484 1483 1482 1480 1479 1478 1476 1474 1473 1471 1469 1468 1466 1464 1463 1461 1459 1457 1455 1453 1452 1450 1448 1446 1444 1443 1441 1439 1437 1435 1433 1432
1540 1538 1537 1536 1534 1533 1532 1530 1528 1527 1526 1524 1523 1521 1520 1518 1517 1516 1515 1513 1512 1511 1509 1508 1506 1504 1503 1501 1499 1498 1496 1494 1492 1491 1489 1487 1485 1484 1482 1481 1479 1478 1477 1475 1473 1472 1471 1469 1467 1465 1463 1462 1460 1458 1457 1455 1453 1451 1450 1448 1446 1444 1442 1440 1438 1437 1435 1433 1431
1539 1538 1537 1535 1534 1533 1531 1529 1528 1527 1525 1523 1522 1520 1519 1518 1516 1515 1514 1513 1511 1510 1508 1507 1505 1503 1502 1500 1498 1497 1495 1493 1491 1489 1488 1486 1485 1483 1481 1480 1478 1477 1476 1474 1473 1472 1471 1469 1466 1464 1463 1461 1459 1458 1456 1454 1453 1451 1449 1448 1446 1444 1442 1440 1438 1436 1434 1433 1431
1538 1537 1536 1535 1533 1532 1530 1529 1528 1526 1524 1523 1521 1520 1518 1517 1516 1514 1513 1512 1510 1509 1507 1506 1504 1503 1501 1499 1498 1496 1494 1492 1490 1488 1487 1485 1483 1482 1480 1479 1478 1476 1475 1474 1473 1472 1471 1469 1466 1463 1462 1460 1459 1457 1456 1454 1452 1451 1449 1447 1445 1443 1442 1440 1438 1436 1434 1432 1430
1538 1537 1535 1534 1533 1531 1530 1528 1527 1525 1524 1523 1521 1519 1518 1516 1515 1513 1512 1510 1509 1508 1506 1504 1503 1501 1500 1498 1497 1495 1493 1492 1490 1488 1486 1484 1483 1481 1480 1478 1477 1476 1474 1473 1472 1471 1470 1469 1467 1464 1461 1460 1458 1457 1455 1453 1452 1450 1449 1447 1445 1443 1441 1439 1438 1436 1434 1432 1430
1537 1536 1535 1533 1532 1531 1529 1528 1526 1525 1523 1522 1520 1518 1517 1515 1514 1512 1511 1509 1508 1507 1505 1503 1502 1500 1499 1497 1496 1494 1493 1491 1489 1487 1485 1484 1482 1480 1479 1478 1476 1475 1474 1473 1471 1470 1470 1468 1467 1464 1461 1459 1458 1456 1455 1453 1452 1450 1448 1447 1445 1443 1441 1439 1437 1435 1433 1431 1429
1536 1535 1534 1533 1532 1530 1529 1527 1526 1524 1523 1521 1519 1518 1516 1515 1513 1512 1510 1508 1507 1505 1504 1503 1501 1499 1498 1496 1495 1493 1492 1490 1488 1487 1485 1483 1482 1480 1479 1477 1476 1474 1473 1472 1471 1470 1469 1468 1467 1464 1461 1459 1458 1456 1454 1453 1452 1450 1448 1447 1445 1443 1441 1439 1437 1435 1433 1431 1429
1536 1534 1533 1532 1531 1529 1528 1527 1525 1523 1522 1520 1519 1517 1516 1514 1513 1511 1509 1508 1506 1504 1503 1502 1500 1498 1497 1495 1494 1492 1491 1489 1488 1486 1484 1483 1481 1480 1478 1477 1475 1474 1473 1471 1470 1469 1468 1467 1466 1464 1461 1459 1458 1456 1454 1453 1451 1450 1448 1447 1445 1443 1441 1439 1437 1435 1433 1431 1429
1535 1534 1533 1531 1530 1529 1528 1526 1524 1523 1522 1520 1518 1517 1515 1513 1512 1510 1508 1507 1505 1504 1502 1501 1499 1498 1496 1494 1493 1491 1490 1488 1487 1485 1483 1482 1480 1479 1478 1476 1475 1473 1472 1471 1469 1468 1468 1466 1465 1463 1461 1459 1457 1456 1454 1453 1451 1449 1448 1446 1445 1443 1441 1439 1437 1435 1433 1431 1429
1534 1533 1532 1531 1529 1528 1527 1525 1524 1523 1521 1519 1518 1516 1514 1513 1511 1509 1508 1506 1504 1503 1502 1500 1498 1497 1495 1494 1492 1490 1489 1487 1486 1484 1483 1481 1480 1478 1477 1475 1474 1473 1471 1470 1468 1468 1466 1465 1464 1462 1460 1458 1457 1455 1453 1452 1450 1448 1447 1446 1444 1443 1441 1439 1437 1435 1433 1431 1428
1533 1532 1531 1530 1529 1528 1526 1525 1523 1522 1520 1519 1517 1515 1514 1512 1511 1509 1507 1506 1504 1502 1501 1499 1498 1496 1494 1493 1491 1489 1488 1486 1485 1483 1482 1480 1479 1478 1476 1475 1473 1472 1470 1469 1468 1466 1465 1464 1463 1461 1459 1457 1456 1454 1452 1450 1449 1448 1447 1446 1444 1443 1441 1439 1437 1435 1433 1431 1428
1533 1532 1530 1529 1528 1527 1525 1524 1523 1521 1520 1518 1517 1515 1513 1512 1510 1508 1507 1505 1503 1501 1500 1498 1496 1495 1493 1492 1490 1488 1487 1485 1484 1482 1481 1479 1478 1477 1475 1474 1473 1471 1470 1468 1467 1465 1464 1462 1462 1460 1458 1456 1455 1453 1451 1450 1449 1448 1447 1446 1444 1443 1441 1439 1437 1435 1433 1430 1428
1532 1531 1530 1528 1527 1526 1525 1523 1522 1520 1519 1518 1516 1514 1513 1511 1509 1508 1506 1504 1503 1501 1499 1498 1496 1494 1493 1491 1489 1488 1486 1484 1483 1482 1480 1479 1477 1476 1475 1473 1472 1471 1469 1468 1466 1464 1463 1461 1460 1459 1457 1455 1454 1452 1451 1450 1449 1448 1447 1446 1444 1442 1440 1438 1437 1435 1433 1430 1428
1531 1530 1529 1528 1526 1525 1524 1523 1521 1520 1518 1517 1515 1514 1512 1511 1509 1507 1505 1504 1502 1500 1498 1497 1495 1493 1492 1490 1489 1487 1485 1483 1482 1481 1479 1478 1476 1475 1474 1473 1471 1470 1469 1467 1466 1464 1462 1460 1459 1458 1456 1454 1453 1452 1450 1450 1449 1448 1447 1445 1443 1442 1440 1438 1436 1434 1432 1430 1428
1530 1529 1528 1527 1526 1524 1523 1522 1520 1519 1518 1516 1515 1513 1512 1510 1508 1507 1505 1503 1501 1500 1498 1496 1495 1493 1491 1490 1488 1487 1485 1483 1482 1480 1479 1477 1476 1474 1473 1472 1471 1469 1468 1467 1465 1463 1462 1459 1458 1458 1456 1454 1453 1452 1450 1450 1449 1448 1446 1445 1443 1441 1439 1438 1436 1434 1432 1430 1428
1529 1528 1527 1526 1525 1523 1522 1521 1520 1518 1517 1516 1514 1513 1511 1509 1508 1506 1504 1503 1501 1499 1498 1496 1494 1493 1491 1489 1488 1486 1484 1483 1481 1480 1478 1477 1475 1474 1472 1471 1470 1469 1468 1466 1465 1463 1461 1459 1458 1457 1456 1453 1452 1451 1450 1449 1448 1447 1445 1444 1442 1441 1439 1437 1435 1433 1432 1429 1428
1528 1527 1526 1525 1524 1523 1521 1520 1519 1518 1516 1515 1513 1512 1511 1509 1507 1505 1504 1502 1500 1498 1497 1495 1494 1492 1491 1489 1488 1486 1484 1483 1481 1479 1478 1476 1475 1473 1472 1470 1469 1468 1467 1465 1464 1463 1461 1458 1457 1457 1456 1453 1452 1451 1450 1448 1447 1446 1444 1443 1442 1440 1438 1437 1435 1433 1431 1429 1428
1527 1526 1525 1524 1523 1522 1521 1519 1518 1517 1516 1514 1513 1512 1510 1508 1507 1505 1503 1502 1500 1498 1497 1495 1494 1492 1490 1489 1487 1486 1484 1483 1481 1479 1478 1476 1474 1473 1472 1470 1468 1468 1466 1465 1463 1462 1460 1458 1456 1456 1455 1453 1451 1450 1449 1448 1447 1445 1443 1442 1441 1439 1438 1436 1434 1433 1431 1429 1428
1526 1525 1524 1523 1522 1521 1520 1519 1518 1517 1515 1514 1512 1511 1509 1508 1506 1505 1503 1502 1500 1498 1497 1495 1493 1492 1490 1489 1487 1485 1484 1482 1481 1479 1478 1476 1474 1473 1471 1470 1468 1467 1465 1464 1463 1461 1460 1458 1456 1455 1454 1453 1451 1449 1448 1447 1446 1445 1443 1442 1440 1438 1437 1435 1434 1433 1431 1429 1427
1525 1524 1523 1522 1521 1520 1519 1518 1517 1516 1515 1513 1512 1510 1509 1508 1506 1504 1503 1501 1500 1498 1496 1495 1493 1492 1491 1489 1487 1485 1484 1482 1481 1479 1478 1476 1474 1473 1471 1469 1468 1466 1464 1463 1462 1461 1459 1458 1456 1454 1453 1453 1451 1449 1447 1446 1445 1444 1443 1441 1440 1438 1437 1435 1433 1432 1430 1429 1427